When you browse on this site, cookies collect data to enhance your experience and personalize the content and advertising you see.
Visit our Privacy Policy to learn more. By continuing to use the site, you agree to this use of cookies and data.
  • în România
  • Lista ţărilor
  • Pe 7 zile
  • Temperatura apei
  • Hartă satelitară
  • Meteo pe hartă
  • Widget-uri
  • user-avatar
    Intrare

    Meteo pe oră la Atzitzintla

    Astăzi, 17 Februarie, Duminică

    Timp Temperatura Precipitaţii Vânt Presiune Umiditate
    00:00 +14°C° 0 mm 2 m/s 560 mmHg 54%
    01:00 +13°C° 0 mm 2 m/s 560 mmHg 56%
    02:00 +13°C° 0 mm 2 m/s 560 mmHg 59%
    03:00 +13°C° 0 mm 2 m/s 560 mmHg 61%
    04:00 +13°C° 0 mm 2 m/s 560 mmHg 63%
    05:00 +12°C° 0 mm 2 m/s 560 mmHg 66%
    06:00 +12°C° 0 mm 2 m/s 560 mmHg 68%
    07:00 +14°C° 0 mm 2 m/s 561 mmHg 61%
    08:00 +16°C° 0 mm 3 m/s 562 mmHg 54%
    09:00 +18°C° 0 mm 3 m/s 564 mmHg 47%
    10:00 +20°C° 0 mm 3 m/s 565 mmHg 40%
    11:00 +23°C° 0 mm 2 m/s 565 mmHg 32%
    12:00 +25°C° 0 mm 2 m/s 566 mmHg 25%
    13:00 +26°C° 0.1 mm 3 m/s 566 mmHg 25%
    14:00 +26°C° 0.1 mm 3 m/s 566 mmHg 25%
    15:00 +26°C° 0.1 mm 3 m/s 565 mmHg 25%
    16:00 +25°C° 0.1 mm 3 m/s 565 mmHg 30%
    17:00 +23°C° 0.1 mm 2 m/s 564 mmHg 36%
    18:00 +21°C° 0.1 mm 2 m/s 563 mmHg 41%
    19:00 +19°C° 0.1 mm 2 m/s 563 mmHg 44%
    20:00 +17°C° 0.1 mm 2 m/s 563 mmHg 46%
    21:00 +15°C° 0.1 mm 2 m/s 562 mmHg 48%
    22:00 +14°C° 0 mm 2 m/s 562 mmHg 48%
    23:00 +14°C° 0 mm 1 m/s 562 mmHg 47%

    Mâine, 18 Februarie, Luni

    Timp Temperatura Precipitaţii Vânt Presiune Umiditate
    00:00 +14°C° 0 mm 1 m/s 562 mmHg 47%
    01:00 +13°C° 0.1 mm 1 m/s 562 mmHg 49%
    02:00 +13°C° 0.1 mm 1 m/s 562 mmHg 51%
    03:00 +12°C° 0.1 mm 1 m/s 561 mmHg 53%
    04:00 +12°C° 0 mm 1 m/s 561 mmHg 55%
    05:00 +11°C° 0 mm 1 m/s 561 mmHg 57%
    06:00 +11°C° 0 mm 1 m/s 561 mmHg 59%
    07:00 +13°C° 0 mm 1 m/s 563 mmHg 53%
    08:00 +16°C° 0 mm 1 m/s 565 mmHg 47%
    09:00 +17°C° 0 mm 0 m/s 566 mmHg 41%
    10:00 +21°C° 0 mm 1 m/s 567 mmHg 39%
    11:00 +21°C° 0 mm 2 m/s 568 mmHg 36%
    12:00 +24°C° 0 mm 3 m/s 568 mmHg 34%
    13:00 +24°C° 0.5 mm 3 m/s 568 mmHg 35%
    14:00 +24°C° 0.5 mm 3 m/s 567 mmHg 37%
    15:00 +23°C° 0.5 mm 4 m/s 566 mmHg 39%
    16:00 +21°C° 0.8 mm 3 m/s 566 mmHg 48%
    17:00 +20°C° 0.8 mm 3 m/s 565 mmHg 57%
    18:00 +18°C° 0.8 mm 2 m/s 564 mmHg 66%
    19:00 +17°C° 0.3 mm 2 m/s 564 mmHg 73%
    20:00 +15°C° 0.3 mm 1 m/s 564 mmHg 80%
    21:00 +14°C° 0.3 mm 1 m/s 564 mmHg 87%
    22:00 +14°C° 0.1 mm 1 m/s 563 mmHg 89%
    23:00 +13°C° 0.1 mm 1 m/s 563 mmHg 92%

    Poimâine, 19 Februarie, Marţi

    Timp Temperatura Precipitaţii Vânt Presiune Umiditate
    00:00 +13°C° 0.1 mm 1 m/s 563 mmHg 94%
    01:00 +12°C° 0.1 mm 1 m/s 563 mmHg 92%
    02:00 +12°C° 0.1 mm 1 m/s 562 mmHg 91%
    03:00 +11°C° 0.1 mm 1 m/s 561 mmHg 90%
    04:00 +11°C° 0 mm 1 m/s 561 mmHg 88%
    05:00 +10°C° 0 mm 1 m/s 561 mmHg 87%
    06:00 +10°C° 0 mm 1 m/s 561 mmHg 85%
    07:00 +12°C° 0 mm 1 m/s 562 mmHg 76%
    08:00 +14°C° 0 mm 1 m/s 564 mmHg 66%
    09:00 +16°C° 0 mm 2 m/s 565 mmHg 56%
    10:00 +18°C° 0.1 mm 2 m/s 566 mmHg 49%
    11:00 +20°C° 0.1 mm 3 m/s 566 mmHg 42%
    12:00 +22°C° 0.1 mm 4 m/s 567 mmHg 34%
    13:00 +22°C° 0 mm 4 m/s 566 mmHg 32%
    14:00 +22°C° 0 mm 5 m/s 566 mmHg 30%
    15:00 +22°C° 0 mm 5 m/s 565 mmHg 28%
    16:00 +21°C° 0 mm 5 m/s 564 mmHg 31%
    17:00 +20°C° 0 mm 4 m/s 563 mmHg 34%
    18:00 +18°C° 0 mm 4 m/s 562 mmHg 37%
    19:00 +16°C° 0 mm 3 m/s 562 mmHg 38%
    20:00 +14°C° 0 mm 3 m/s 562 mmHg 39%
    21:00 +13°C° 0 mm 2 m/s 561 mmHg 40%
    22:00 +12°C° 0 mm 2 m/s 561 mmHg 38%
    23:00 +12°C° 0 mm 2 m/s 561 mmHg 35%

    20 Februarie, Miercuri

    Timp Temperatura Precipitaţii Vânt Presiune Umiditate
    00:00 +12°C° 0 mm 2 m/s 560 mmHg 32%
    01:00 +10°C° 0 mm 2 m/s 560 mmHg 35%
    02:00 +10°C° 0 mm 2 m/s 559 mmHg 38%
    03:00 +9°C° 0 mm 2 m/s 559 mmHg 41%
    04:00 +9°C° 0 mm 2 m/s 559 mmHg 45%
    05:00 +9°C° 0 mm 2 m/s 559 mmHg 50%
    06:00 +9°C° 0 mm 2 m/s 558 mmHg 55%
    07:00 +12°C° 0 mm 2 m/s 560 mmHg 47%
    08:00 +14°C° 0 mm 2 m/s 562 mmHg 39%
    09:00 +17°C° 0 mm 2 m/s 563 mmHg 31%
    10:00 +18°C° 0 mm 3 m/s 564 mmHg 27%
    11:00 +20°C° 0 mm 3 m/s 565 mmHg 23%
    12:00 +22°C° 0 mm 4 m/s 565 mmHg 19%
    13:00 +22°C° 0 mm 4 m/s 565 mmHg 19%
    14:00 +22°C° 0 mm 5 m/s 564 mmHg 19%
    15:00 +22°C° 0 mm 5 m/s 564 mmHg 18%
    16:00 +21°C° 0 mm 4 m/s 563 mmHg 23%
    17:00 +19°C° 0 mm 4 m/s 562 mmHg 29%
    18:00 +18°C° 0 mm 3 m/s 562 mmHg 34%
    19:00 +16°C° 0 mm 2 m/s 561 mmHg 37%
    20:00 +14°C° 0 mm 2 m/s 561 mmHg 39%
    21:00 +12°C° 0 mm 1 m/s 560 mmHg 42%
    22:00 +12°C° 0 mm 2 m/s 560 mmHg 37%
    23:00 +10°C° 0 mm 2 m/s 560 mmHg 32%

    21 Februarie, Joi

    Timp Temperatura Precipitaţii Vânt Presiune Umiditate
    00:00 +10°C° 0 mm 2 m/s 560 mmHg 27%
    01:00 +9°C° 0 mm 2 m/s 560 mmHg 28%
    02:00 +9°C° 0 mm 2 m/s 559 mmHg 29%
    03:00 +8°C° 0 mm 2 m/s 559 mmHg 30%
    04:00 +8°C° 0 mm 2 m/s 559 mmHg 38%
    05:00 +8°C° 0 mm 2 m/s 559 mmHg 46%
    06:00 +7°C° 0 mm 2 m/s 559 mmHg 54%
    07:00 +10°C° 0 mm 2 m/s 560 mmHg 45%
    08:00 +14°C° 0 mm 2 m/s 562 mmHg 36%
    09:00 +16°C° 0 mm 2 m/s 564 mmHg 27%
    10:00 +18°C° 0 mm 3 m/s 565 mmHg 23%
    11:00 +20°C° 0 mm 3 m/s 565 mmHg 20%
    12:00 +22°C° 0 mm 4 m/s 566 mmHg 16%
    13:00 +22°C° 0 mm 4 m/s 565 mmHg 17%
    14:00 +22°C° 0 mm 5 m/s 565 mmHg 17%
    15:00 +23°C° 0 mm 5 m/s 564 mmHg 18%
    16:00 +21°C° 0 mm 4 m/s 563 mmHg 22%
    17:00 +19°C° 0 mm 4 m/s 563 mmHg 26%
    18:00 +18°C° 0 mm 3 m/s 562 mmHg 30%
    19:00 +16°C° 0 mm 3 m/s 562 mmHg 32%
    20:00 +14°C° 0 mm 2 m/s 561 mmHg 33%
    21:00 +12°C° 0 mm 2 m/s 561 mmHg 34%
    22:00 +12°C° 0 mm 2 m/s 561 mmHg 33%
    23:00 +10°C° 0 mm 2 m/s 561 mmHg 31%

    22 Februarie, Vineri

    Timp Temperatura Precipitaţii Vânt Presiune Umiditate
    00:00 +10°C° 0 mm 2 m/s 561 mmHg 30%
    01:00 +10°C° 0 mm 2 m/s 560 mmHg 33%
    02:00 +9°C° 0 mm 2 m/s 560 mmHg 35%
    03:00 +9°C° 0 mm 2 m/s 560 mmHg 38%
    04:00 +9°C° 0 mm 2 m/s 560 mmHg 41%
    05:00 +9°C° 0 mm 2 m/s 560 mmHg 44%
    06:00 +9°C° 0 mm 1 m/s 560 mmHg 46%
    07:00 +12°C° 0 mm 1 m/s 562 mmHg 40%
    08:00 +15°C° 0 mm 1 m/s 563 mmHg 34%
    09:00 +19°C° 0 mm 1 m/s 565 mmHg 27%
    10:00 +20°C° 0 mm 1 m/s 566 mmHg 26%
    11:00 +21°C° 0 mm 2 m/s 566 mmHg 24%
    12:00 +24°C° 0 mm 2 m/s 567 mmHg 23%
    13:00 +24°C° 0 mm 2 m/s 567 mmHg 23%
    14:00 +24°C° 0 mm 3 m/s 566 mmHg 23%
    15:00 +24°C° 0 mm 3 m/s 565 mmHg 23%
    16:00 +22°C° 0 mm 3 m/s 565 mmHg 28%
    17:00 +20°C° 0 mm 3 m/s 564 mmHg 34%
    18:00 +19°C° 0 mm 2 m/s 564 mmHg 39%
    19:00 +17°C° 0 mm 2 m/s 563 mmHg 43%
    20:00 +15°C° 0 mm 2 m/s 562 mmHg 47%
    21:00 +13°C° 0 mm 1 m/s 562 mmHg 51%
    22:00 +12°C° 0 mm 1 m/s 562 mmHg 49%
    23:00 +12°C° 0 mm 1 m/s 562 mmHg 47%
    Arată mai mult